Location: Poughquag
(41.6090°N, 73.6820°W)
Time: 03:36:30
(UTC-04:00)

Transit 2A - Pass Details

Date: 02 June 2020
Orbit: 592 x 967 km, 66.7° (Epoch: 06 July)

Event Time Altitude Azimuth Distance (km) Brightness Sun altitude
Rises 15:16:11 0° 262° (W) 3,112 9.7 54.4°
Reaches altitude 10° 15:19:19 10° 283° (WNW) 2,272 9.1 53.8°
Maximum altitude 15:22:36 17° 322° (NW) 1,937 8.5 53.3°
Drops below altitude 10° 15:26:05 10° 1° (N) 2,440 8.6 52.7°
Sets 15:29:39 0° 22° (NNE) 3,459 9.1 52.0°
